Home   Weather   Qatif   Past weeks

Flag for Saudi Arabia Past Weather in Qatif, Saudi Arabia — Yesterday and Last 2 Weeks

Now
64 °F

Clear.


Feels Like: 64 °F
Forecast: 51 / 70 °F
Wind: 3 mph from North

Location: King Fahd International Airport

Current Time: Feb 25, 2017 at 7:19:45 pm

Latest Report: Feb 25, 2017 at 7:00 pm


Visibility: 10 mi

Pressure: 30.15 "Hg

Humidity: 43%

Dew Point: 41 °F

Location of QatifLocation

Past Weather in Qatif — Graph

°F

Qatif Temperature Yesterday

Maximum temperature yesterday: 68 °F (at 1:00 pm)
Minimum temperature yesterday: 59 °F (at 1:00 am)
Average temperature yesterday: 62 °F

High & Low Weather Summary for the Past Weeks

 TemperatureHumidityPressure
High73 °F (Feb 13, 1:00 pm)94% (Feb 15, 6:00 am)30.42 "Hg (Feb 15, 6:00 am)
Low43 °F (Feb 19, 6:00 am)14% (Feb 21, 2:00 pm)29.80 "Hg (Feb 12, 10:00 pm)
Average61 °F66%30.05 "Hg
* Reported Feb 10 7:00 pm — Feb 25 6:00 pm, Qatif, Weather by CustomWeather, © 2017

Note: Actual official high and low records may vary slightly from our data, if they occured in-between our weather recording intervals... More about our weather records

Advertising

Qatif Weather History for the Previous 24 Hours

Scroll right to see more
 ConditionsComfort  
Time TempWeatherWind HumidityBarometerVisibility
6:00 pm
Sat, Feb 25
68 °FClear.9 mph30%30.12 "Hg10 mi
5:00 pm70 °FSunny.14 mph29%30.12 "Hg10 mi
4:00 pm72 °FSunny.14 mph25%30.12 "Hg10 mi
3:00 pm72 °FSunny.15 mph25%30.12 "Hg10 mi
2:00 pm72 °FSunny.16 mph23%30.12 "Hg10 mi
1:00 pm72 °FSunny.16 mph33%30.15 "Hg10 mi
12:00 pm70 °FSunny.13 mph40%30.18 "Hg10 mi
11:00 am68 °FSunny.7 mph43%30.21 "Hg10 mi
10:00 am64 °FSunny.8 mph43%30.24 "Hg10 mi
9:00 am59 °FSunny.16 mph45%30.21 "Hg10 mi
8:00 am55 °FSunny.12 mph51%30.21 "Hg10 mi
7:00 am54 °FSunny.15 mph58%30.18 "Hg10 mi
6:00 am54 °FClear.16 mph63%30.15 "Hg10 mi
5:00 am55 °FClear.13 mph63%30.15 "Hg10 mi
4:00 am55 °FClear.10 mph72%30.15 "Hg10 mi
3:00 am55 °FClear.8 mph72%30.18 "Hg10 mi
2:00 am55 °FClear.6 mph77%30.18 "Hg10 mi
1:00 am57 °FClear.5 mph72%30.18 "Hg10 mi
12:00 am57 °FClear.6 mph72%30.18 "Hg10 mi
11:00 pm
Fri, Feb 24
59 °FClear.7 mph72%30.18 "Hg10 mi
10:00 pm59 °FClear.7 mph72%30.18 "Hg10 mi
9:00 pm61 °FClear.12 mph68%30.15 "Hg10 mi
8:00 pm61 °FClear.10 mph72%30.18 "Hg10 mi
7:00 pm61 °FClear.9 mph72%30.15 "Hg10 mi
Weather by CustomWeather, © 2017

See weather overviewHow to use our weather pages